Temperature
18 18 19 19 19 19 18 18 17 17 16 15 15 15 14 14 14 14 14 15 15 15 14 14 14 14 14 14 14 14 14 14 14 15 15 15 16 16 16 16 15 13 13
20 19 19 20 20 20 19 18 18 17 16 15 15 14 14 14 14 14 14 15 15 14 13 13 14 14 14 14 14 14 14 14 14 14 14 14 14 14 15 15 14 13 13
20 19 19 20 20 20 19 19 19 18 17 16 14 14 14 14 14 14 15 15 15 14 14 14 14 14 14 14 14 14 14 14 14 14 14 14 14 14 14 14 14 13 13
20 20 19 19 19 19 19 19 19 19 18 16 15 14 14 14 14 14 15 15 15 15 14 14 14 14 14 14 14 14 13 13 13 13 13 13 13 13 14 14 14 14 13
20 20 19 19 19 19 19 19 19 19 18 16 15 14 14 14 14 14 14 15 15 15 15 15 15 15 14 14 14 14 13 13 13 13 13 13 13 13 13 14 14 14 14
20 20 19 19 19 19 19 19 19 19 18 16 15 14 14 14 14 14 14 15 15 15 15 15 15 15 14 14 14 13 13 13 13 13 13 12 13 13 13 13 13 13 13
20 19 19 18 18 19 19 19 19 19 18 16 15 15 14 14 14 14 14 14 15 15 15 14 14 14 14 14 14 13 13 13 13 13 12 12 12 13 13 13 13 13 13
20 19 18 18 18 18 18 19 19 19 18 17 15 15 14 14 14 14 14 14 15 15 14 14 14 14 14 14 13 13 13 13 13 13 12 12 12 12 12 12 12 12 12
19 19 18 17 17 18 18 18 18 18 18 17 16 15 14 14 14 14 14 14 14 14 14 14 14 14 14 14 13 13 13 13 13 13 12 12 12 12 12 12 13 13 12
18 18 18 17 17 17 18 18 18 18 17 17 16 15 14 14 14 14 14 14 14 14 14 14 14 14 13 13 13 13 13 13 13 13 12 12 12 12 12 12 12 11 11
17 18 18 17 17 17 17 17 17 17 17 17 16 15 14 14 14 14 14 14 14 14 14 14 13 13 13 13 13 13 14 14 13 13 12 12 12 11 11 11 10 10 10
18 17 17 17 17 17 17 17 17 17 17 17 16 15 14 14 14 14 14 14 14 14 14 13 13 13 13 13 13 13 14 14 13 12 12 11 11 11 10 10 10 9 9
19 18 18 17 17 17 17 17 17 17 17 17 16 15 15 15 15 14 14 14 14 14 14 13 13 13 13 13 13 13 13 13 12 12 11 11 10 10 9 9 9 9 9
19 19 18 17 17 17 17 17 17 17 17 17 17 16 15 15 15 15 14 14 14 14 14 13 13 13 13 13 13 13 13 13 12 11 10 10 10 9 9 9 9 9 9
19 19 18 18 17 17 17 16 16 16 16 17 16 16 16 15 15 14 14 14 13 13 13 13 13 13 13 13 13 13 13 12 11 10 10 10 9 9 9 8 8 8 9
18 19 19 18 18 17 17 17 16 16 16 16 16 16 16 15 15 14 13 13 13 13 12 12 12 12 13 13 13 13 12 12 11 10 10 9 9 9 8 8 8 8 8
19 19 18 18 18 18 18 17 17 16 16 15 15 15 15 14 14 13 13 13 13 12 12 12 12 13 13 13 13 12 12 11 11 10 9 9 9 8 8 8 8 8 8
19 19 18 18 18 18 18 18 17 16 16 15 15 15 14 14 13 13 13 13 12 12 11 12 12 12 13 13 12 12 11 11 10 9 9 8 8 8 8 8 8 8 7
19 19 19 18 18 18 18 18 17 17 16 15 15 14 14 13 13 13 13 12 12 11 11 11 12 12 12 12 12 12 11 10 9 9 8 8 8 8 8 7 7 7 7
19 19 19 18 18 18 18 17 17 17 16 15 15 14 14 13 13 13 12 12 12 11 11 11 12 12 12 12 12 11 10 9 9 8 8 7 7 7 7 7 6 6 6
18 18 18 18 18 18 17 17 17 17 16 16 15 14 14 14 13 13 12 12 11 11 11 11 12 12 11 11 11 11 10 9 8 8 8 7 7 6 6 6 6 5 5
18 18 18 18 18 18 17 17 17 17 17 17 16 15 14 14 13 13 12 12 12 11 11 11 11 11 11 11 11 11 10 9 8 8 7 7 7 6 6 5 5 5 5
17 18 18 18 18 18 17 17 17 17 16 16 15 15 14 14 13 13 13 12 12 11 11 11 11 11 11 11 11 10 10 10 9 8 7 7 6 6 5 5 4 4 4
17 17 17 17 17 17 17 17 17 17 16 16 16 16 15 14 14 13 13 12 12 11 11 11 11 11 11 11 10 10 9 9 9 8 7 7 6 6 5 5 4 4 4
17 17 17 17 17 17 17 17 17 17 17 17 16 16 15 15 14 13 13 12 12 11 11 11 11 11 10 10 10 9 9 8 8 7 7 6 6 5 5 4 4 4 3
16 16 16 16 16 16 16 16 16 16 16 16 16 15 15 14 13 13 12 12 12 11 11 11 10 10 10 10 9 9 8 7 7 6 5 5 4 5 4 4 4 3 2
Wind_Speed
8 13 20 19 19 18 18 17 17 16 17 19 20 20 19 18 16 14 13 11 10 10 11 13 14 14 15 14 12 11 9 9 9 9 8 8 9 9 8 8 8 6 5
12 17 21 20 20 19 18 17 17 16 16 18 19 20 19 17 16 14 13 11 10 10 11 12 13 13 13 12 10 9 8 8 7 5 4 3 5 7 7 6 6 5 5
17 18 20 21 20 19 18 17 17 17 16 17 18 19 18 17 16 15 13 12 11 11 11 11 11 11 10 10 8 8 7 6 5 2 3 3 1 4 5 5 4 4 3
18 19 18 21 20 19 18 17 17 17 17 18 18 18 18 17 16 15 13 12 11 11 11 10 10 9 9 8 7 6 5 4 4 3 3 7 4 3 4 3 2 1 1
15 18 19 21 20 19 18 17 18 18 18 18 18 18 17 17 16 14 13 12 11 10 10 10 9 8 8 7 5 4 4 6 8 4 5 9 5 3 3 2 1 1 2
12 17 20 21 20 19 18 18 18 18 18 18 17 17 16 16 15 14 13 12 11 10 10 10 9 8 7 6 5 4 5 8 9 5 8 8 3 2 2 2 1 1 2
14 16 20 21 20 19 18 18 18 18 17 17 16 16 15 15 14 14 14 12 11 9 9 9 9 8 6 5 4 5 7 9 9 7 7 4 2 3 3 3 4 4 3
17 16 19 21 20 19 18 18 18 19 18 17 16 15 15 14 14 14 14 12 10 9 9 9 9 8 6 4 4 6 8 8 7 9 7 4 3 3 4 4 5 5 6
14 14 15 18 19 19 19 18 18 18 18 17 15 14 12 13 15 15 14 12 10 9 8 8 8 7 6 4 5 7 9 9 10 8 6 4 3 3 4 5 6 8 11
12 13 12 15 16 16 17 18 18 18 17 16 15 13 12 12 15 17 15 12 10 9 8 8 7 6 5 4 5 8 10 12 11 7 4 2 3 4 6 9 12 15 16
12 11 11 12 13 14 15 17 18 18 17 16 15 15 12 12 15 16 15 13 11 9 8 7 6 5 4 4 7 9 11 11 10 6 4 4 7 11 14 15 15 15 15
15 14 12 13 12 14 15 14 14 15 15 15 15 14 12 12 12 13 15 14 12 10 8 6 5 3 2 5 8 10 10 10 9 7 8 11 13 15 16 15 15 14 13
17 16 15 15 13 13 10 12 11 12 13 14 16 16 13 11 10 10 11 11 10 9 6 4 4 4 4 5 6 8 9 10 9 9 10 13 14 14 14 13 13 11 11
16 18 17 16 15 13 12 11 11 10 10 11 15 16 12 8 8 9 8 9 9 7 5 4 5 6 6 6 7 8 8 9 9 10 12 15 14 13 12 11 11 10 10
15 17 18 17 17 15 11 10 11 10 11 13 14 15 14 9 7 7 7 9 8 7 6 6 6 6 5 5 6 7 7 9 9 10 12 15 14 12 11 10 10 9 9
13 16 18 19 18 16 15 13 10 12 13 14 14 15 17 14 11 8 6 7 7 8 8 8 7 5 4 4 5 6 7 9 9 10 12 13 13 11 10 9 9 9 10
11 14 17 20 19 19 17 15 11 12 13 11 13 16 18 16 14 11 6 5 8 11 11 9 7 6 4 4 4 4 5 7 9 9 11 12 11 10 8 8 9 10 11
10 11 16 17 18 19 17 15 11 12 12 11 14 16 18 18 17 13 7 6 11 11 9 5 4 4 4 4 2 2 2 5 8 9 9 10 9 8 7 7 8 9 10
11 11 14 15 18 19 17 14 12 10 11 11 14 14 16 18 18 14 8 8 13 8 5 5 3 3 3 2 1 2 2 3 5 7 7 8 7 7 6 6 6 6 8
11 11 14 16 17 18 14 11 9 10 10 9 11 12 16 17 18 15 9 10 11 7 5 5 5 3 3 2 2 3 3 2 2 3 5 6 6 6 6 5 3 3 5
9 9 12 14 16 15 11 12 12 13 12 11 9 13 16 17 18 15 9 8 8 7 7 7 5 4 3 2 3 3 3 3 2 1 1 2 3 5 5 3 1 1 3
9 9 10 13 14 15 15 15 12 12 9 10 9 10 16 18 19 16 13 11 9 8 8 6 5 4 2 2 3 3 1 2 2 2 1 2 2 4 3 2 3 5 5
10 10 9 11 14 15 14 9 6 4 3 4 7 10 12 17 18 17 15 12 10 9 9 7 6 6 4 2 2 4 4 4 2 3 3 2 2 3 3 4 7 8 9
11 10 9 10 12 13 14 13 15 12 10 9 10 9 11 13 15 17 17 15 13 9 9 8 6 5 5 4 2 2 2 3 3 1 3 2 1 2 3 4 8 11 12
8 8 8 8 10 11 14 16 18 12 9 6 8 10 10 9 11 14 16 14 13 10 10 8 6 6 4 5 4 3 2 2 2 2 3 4 4 3 3 4 6 8 11
5 5 5 6 7 10 14 16 18 16 13 12 12 12 11 8 8 11 13 13 12 11 11 9 7 8 5 5 4 3 3 3 2 3 3 3 4 4 3 4 3 4 7
Wind_Direction
160 164 155 148 140 134 129 127 126 128 132 133 131 127 123 118 114 110 104 100 100 100 94 91 99 111 108 103 99 94 88 85 82 78 70 68 74 81 86 82 75 85 93
152 160 156 151 143 137 133 130 129 130 133 136 136 132 128 123 117 111 105 102 103 107 105 97 94 99 100 98 96 92 92 91 90 91 87 67 61 84 93 94 87 92 91
150 157 157 153 147 141 137 135 134 134 137 139 138 134 130 125 119 112 108 107 108 108 107 103 99 98 99 98 94 91 90 87 82 89 158 166 116 96 99 98 92 102 106
152 154 158 156 150 145 141 138 137 136 136 138 138 136 134 129 124 119 116 116 114 111 108 105 103 102 102 100 95 88 73 47 26 23 153 182 191 111 104 104 93 81 87
151 153 160 158 153 149 145 142 140 138 138 138 139 140 139 136 133 129 126 124 123 120 116 113 110 109 108 106 100 82 44 18 10 23 144 170 192 117 99 107 149 214 245
148 151 162 160 157 152 149 148 145 142 141 141 142 144 146 146 142 138 135 136 135 133 128 124 122 120 117 110 100 72 33 19 21 47 139 161 181 100 87 77 54 256 254
150 153 163 163 160 157 156 155 152 149 147 147 149 151 153 154 151 148 146 147 146 142 137 134 130 127 120 107 80 43 23 18 38 86 124 140 116 77 65 48 37 28 14
154 157 166 167 164 163 162 162 161 156 155 155 155 157 160 163 162 159 156 156 156 152 148 143 138 133 123 102 59 33 20 26 67 97 97 79 47 54 55 44 32 31 30
156 159 166 170 169 169 168 168 168 164 162 161 161 161 166 172 171 167 164 163 161 158 153 147 143 138 129 108 67 46 42 66 98 103 83 61 40 52 58 57 58 61 61
161 165 167 169 171 172 173 174 174 172 168 167 164 161 167 174 171 167 167 166 164 161 155 149 144 138 126 93 60 63 73 88 94 86 70 43 62 81 87 83 78 74 68
172 173 171 169 171 171 174 179 177 176 175 172 167 166 163 162 162 165 167 166 166 166 162 154 146 139 120 56 47 71 82 101 95 80 59 77 88 91 88 83 77 70 66
181 181 179 177 174 172 178 179 179 178 179 175 172 173 168 161 161 167 169 169 170 172 169 160 149 138 108 59 62 72 89 110 92 73 74 91 93 89 83 77 71 66 61
184 184 185 183 179 177 178 176 181 180 179 179 179 180 175 172 170 166 168 171 172 170 162 144 107 97 105 95 80 78 101 111 95 79 80 90 92 88 82 75 69 63 57
183 189 187 186 183 183 181 181 184 184 184 186 190 186 176 176 175 172 173 173 172 169 155 134 115 107 101 95 91 91 108 117 103 89 85 88 89 87 82 76 68 59 52
190 192 190 188 187 185 183 184 186 189 190 193 194 191 183 178 177 176 177 175 177 168 149 132 119 110 96 80 79 92 113 130 114 101 95 93 90 87 81 72 62 52 44
204 198 192 191 191 187 188 188 187 190 191 193 198 193 188 183 178 177 172 171 169 159 145 130 122 109 84 75 70 83 112 137 128 115 107 101 98 93 84 70 57 45 36
210 201 196 195 192 191 191 191 189 190 189 191 198 198 191 185 177 172 164 158 156 147 132 116 105 94 78 66 59 65 107 140 143 131 124 119 113 105 93 74 58 46 34
207 201 200 199 194 194 193 192 190 189 188 191 193 195 189 180 170 162 158 154 150 140 127 114 108 87 68 64 52 31 85 135 150 153 147 144 137 127 109 89 68 50 33
213 202 201 202 196 197 196 192 190 185 187 189 190 188 183 173 165 159 155 150 145 130 121 121 98 108 83 62 40 59 72 131 150 163 170 173 163 149 130 108 84 59 35
231 209 204 203 201 199 197 191 188 186 187 186 188 183 174 170 163 157 152 148 142 129 127 121 114 91 91 87 61 56 37 72 130 158 180 183 175 159 145 131 106 62 29
244 223 209 205 205 198 192 191 191 194 192 190 187 177 171 166 163 158 153 150 147 145 148 138 119 104 72 75 92 51 15 26 68 111 167 155 149 147 142 142 135 335 342
239 234 218 211 208 202 199 196 195 193 192 188 176 170 170 167 167 164 158 160 154 144 145 148 136 124 94 66 125 117 65 334 336 11 25 131 106 98 82 45 353 331 311
243 240 231 216 211 207 201 189 160 123 103 145 170 175 175 172 170 167 164 159 157 156 163 163 153 143 143 83 84 141 153 206 269 326 10 53 82 83 53 26 5 346 324
247 246 241 229 216 206 197 187 178 180 183 186 182 175 171 171 171 168 165 161 160 158 161 164 156 149 141 144 109 74 122 144 158 288 323 344 8 68 24 357 343 341 341
251 251 248 237 223 208 199 194 191 189 179 159 156 159 165 168 169 166 165 161 161 160 160 154 148 144 139 149 152 141 116 87 110 154 269 313 329 322 336 326 331 349 2
256 256 251 238 228 209 201 199 195 185 164 156 161 167 168 165 165 167 167 163 161 159 157 152 144 144 139 136 137 140 147 150 163 162 218 267 285 293 303 300 324 1 23
Height
1513 1516 1517 1519 1521 1522 1523 1524 1526 1527 1529 1530 1531 1532 1532 1533 1533 1533 1533 1533 1532 1532 1532 1533 1534 1534 1535 1536 1537 1537 1537 1536 1536 1536 1537 1536 1536 1536 1536 1535 1535 1535 1535
1513 1515 1517 1519 1521 1522 1523 1524 1525 1527 1528 1529 1531 1531 1532 1532 1533 1533 1533 1533 1532 1532 1532 1533 1534 1535 1536 1536 1537 1537 1537 1536 1536 1536 1536 1536 1536 1536 1536 1535 1535 1535 1535
1513 1515 1517 1519 1521 1522 1523 1524 1525 1526 1527 1529 1530 1531 1532 1532 1533 1534 1534 1533 1532 1532 1533 1534 1535 1536 1537 1537 1537 1537 1537 1537 1537 1537 1537 1537 1536 1537 1537 1536 1536 1535 1535
1514 1515 1517 1519 1521 1523 1523 1524 1525 1526 1527 1528 1530 1531 1532 1532 1533 1534 1534 1534 1533 1533 1534 1535 1536 1536 1537 1537 1537 1538 1538 1538 1538 1537 1537 1537 1537 1537 1538 1537 1536 1536 1536
1514 1516 1517 1519 1521 1523 1524 1524 1525 1526 1527 1528 1529 1531 1532 1533 1534 1534 1534 1535 1535 1535 1535 1536 1537 1537 1538 1538 1538 1539 1539 1539 1538 1538 1538 1538 1538 1538 1538 1538 1537 1537 1537
1513 1516 1517 1519 1521 1523 1524 1524 1525 1526 1527 1528 1530 1531 1533 1534 1534 1535 1535 1536 1536 1536 1537 1537 1538 1539 1539 1539 1540 1540 1540 1539 1539 1538 1539 1539 1539 1539 1539 1538 1538 1538 1538
1513 1515 1517 1519 1522 1523 1524 1525 1526 1527 1528 1529 1530 1531 1533 1534 1536 1536 1537 1537 1538 1538 1539 1539 1539 1540 1541 1541 1541 1541 1540 1539 1539 1539 1539 1540 1540 1539 1539 1538 1538 1538 1538
1513 1515 1517 1519 1522 1523 1524 1525 1526 1527 1528 1529 1530 1532 1534 1535 1536 1537 1538 1539 1539 1540 1540 1540 1541 1541 1541 1541 1541 1541 1540 1539 1539 1539 1540 1540 1540 1539 1539 1538 1537 1537 1537
1513 1515 1517 1519 1521 1523 1524 1525 1526 1527 1528 1529 1531 1532 1534 1535 1537 1538 1539 1540 1540 1541 1541 1541 1541 1541 1541 1541 1541 1540 1540 1540 1540 1539 1539 1539 1539 1539 1538 1537 1537 1536 1536
1513 1515 1516 1518 1520 1522 1524 1525 1526 1527 1528 1529 1531 1532 1534 1535 1537 1538 1539 1540 1541 1541 1541 1541 1542 1542 1541 1541 1540 1540 1540 1540 1539 1539 1539 1538 1538 1537 1537 1536 1536 1535 1535
1512 1513 1515 1517 1519 1521 1522 1524 1525 1526 1527 1529 1530 1532 1533 1535 1536 1537 1538 1540 1540 1541 1541 1541 1541 1541 1541 1541 1540 1540 1539 1539 1538 1538 1537 1537 1536 1536 1535 1535 1535 1534 1533
1509 1511 1514 1515 1517 1519 1520 1522 1523 1524 1526 1527 1529 1530 1532 1533 1535 1536 1537 1538 1539 1540 1540 1541 1541 1541 1540 1540 1539 1539 1538 1537 1536 1536 1535 1535 1535 1534 1534 1534 1533 1533 1532
1507 1509 1511 1513 1515 1516 1518 1520 1521 1522 1524 1525 1527 1529 1530 1532 1533 1534 1535 1537 1538 1539 1539 1539 1539 1539 1539 1539 1538 1537 1536 1535 1534 1534 1534 1534 1533 1533 1532 1532 1532 1532 1531
1504 1506 1508 1510 1512 1514 1515 1517 1519 1520 1521 1523 1525 1526 1527 1529 1531 1532 1533 1535 1536 1537 1537 1538 1538 1538 1538 1537 1536 1535 1535 1534 1533 1533 1532 1532 1532 1532 1531 1531 1531 1531 1530
1501 1503 1505 1507 1509 1511 1512 1514 1516 1517 1519 1521 1522 1523 1525 1526 1528 1530 1531 1533 1534 1535 1536 1536 1537 1537 1536 1536 1535 1534 1533 1532 1532 1532 1531 1531 1531 1531 1531 1530 1530 1530 1529
1498 1500 1501 1503 1505 1507 1508 1510 1512 1514 1516 1518 1519 1521 1522 1524 1525 1527 1529 1530 1532 1533 1534 1535 1535 1535 1535 1534 1533 1532 1532 1531 1530 1530 1530 1530 1530 1530 1530 1530 1529 1528 1527
1494 1495 1497 1498 1501 1502 1504 1506 1508 1510 1513 1514 1516 1518 1519 1521 1523 1524 1526 1528 1530 1531 1532 1533 1533 1533 1533 1533 1532 1531 1530 1530 1529 1529 1529 1529 1529 1529 1529 1528 1528 1527 1525
1489 1491 1492 1494 1496 1498 1500 1502 1504 1506 1508 1510 1513 1514 1516 1518 1520 1522 1524 1525 1527 1529 1530 1531 1532 1531 1531 1531 1530 1530 1529 1528 1528 1528 1529 1528 1528 1528 1527 1527 1526 1525 1523
1483 1485 1487 1489 1491 1493 1496 1498 1500 1502 1504 1506 1509 1511 1513 1515 1518 1520 1522 1523 1525 1527 1528 1529 1530 1530 1529 1529 1528 1528 1527 1527 1527 1527 1528 1527 1527 1526 1526 1525 1524 1523 1521
1476 1478 1480 1483 1485 1489 1492 1494 1496 1498 1500 1502 1504 1507 1509 1512 1515 1517 1519 1521 1523 1525 1526 1527 1528 1528 1528 1527 1527 1526 1526 1525 1526 1526 1526 1526 1525 1524 1524 1523 1522 1520 1518
1469 1471 1473 1475 1478 1482 1485 1488 1490 1491 1494 1496 1499 1502 1506 1508 1511 1514 1516 1518 1521 1522 1524 1525 1525 1526 1526 1525 1525 1525 1524 1524 1524 1524 1524 1523 1523 1522 1521 1520 1518 1517 1515
1462 1464 1466 1467 1470 1473 1476 1480 1483 1485 1487 1490 1493 1497 1501 1504 1507 1510 1512 1515 1518 1519 1521 1522 1523 1524 1524 1523 1523 1522 1522 1523 1522 1522 1521 1520 1520 1519 1518 1517 1515 1513 1511
1456 1458 1459 1460 1463 1466 1469 1473 1476 1479 1482 1485 1488 1491 1494 1498 1502 1505 1508 1511 1514 1516 1518 1520 1521 1521 1521 1521 1521 1521 1520 1519 1519 1519 1518 1517 1516 1516 1515 1514 1512 1509 1506
1450 1452 1453 1454 1455 1458 1461 1463 1466 1468 1472 1475 1479 1483 1488 1492 1496 1500 1503 1506 1509 1512 1515 1516 1518 1518 1519 1518 1518 1518 1518 1517 1516 1515 1515 1514 1513 1513 1512 1510 1508 1505 1501
1444 1445 1446 1447 1448 1450 1453 1455 1458 1461 1465 1469 1474 1478 1482 1486 1490 1494 1498 1501 1504 1507 1510 1512 1514 1515 1515 1515 1515 1514 1514 1513 1512 1512 1511 1510 1510 1509 1507 1506 1503 1500 1497
1439 1439 1439 1440 1441 1442 1445 1447 1450 1454 1457 1462 1466 1471 1475 1479 1483 1487 1492 1495 1499 1502 1505 1508 1510 1511 1511 1511 1511 1510 1510 1509 1508 1507 1506 1504 1503 1502 1502 1501 1498 1495 1492